Regional Weather Roundup
Issued by NWS

Home | Current Version | Previous Version | Graphics & Text | Print | Product List | Glossary Off
Versions: 1 2 3 4 5 6 7 8 9 10 11 12 13 14 15 16 17 18 19 20 21 22 23 24 25 26 27 28 29 30 31 32 33 34 35 36 37 38 39 40 41 42 43 44 45 46 47 48 49 50

000
ASUS43 KTOP 201659
RWRKS

WEATHER ROUNDUP FOR KANSAS
NATIONAL WEATHER SERVICE GOODLAND KS
1200 PM CDT SUN APR 20 2014

NOTE:  "FAIR" INDICATES FEW OR NO CLOUDS BELOW 12,000 FEET WITH NO
SIGNIFICANT WEATHER AND/OR OBSTRUCTIONS TO VISIBILITY.

KSZ001>006-013>018-027>032-041>047-201800-
NORTHWEST KANSAS

CITY           SKY/WX    TMP DP  RH WIND       PRES   REMARKS
GOODLAND       PTSUNNY   62  50  64 E7        30.01S
HAYS           CLOUDY    70  54  56 S21       30.02F
HILL CITY      PTSUNNY   72  52  49 SW10      29.99F
RUSSELL        PTSUNNY   71  52  50 S17       30.01S
$$

KSZ061>065-074>080-084>089-201800-
SOUTHWEST KANSAS

CITY           SKY/WX    TMP DP  RH WIND       PRES   REMARKS
DODGE CITY     CLOUDY    67  52  58 S20       30.02F
ELKHART          N/A     70  48  45 S12         N/A
GARDEN CITY    SUNNY     72  51  47 S18G25    29.99F
GREAT BEND     CLOUDY    70  54  56 S16G22    30.02F
LIBERAL        SUNNY     72  52  49 S20G25    30.02F
$$

KSZ066>073-081>083-090>101-201800-
SOUTHEAST KANSAS

CITY           SKY/WX    TMP DP  RH WIND       PRES   REMARKS
CHANUTE        MOSUNNY   75  53  46 S20       30.11F
COFFEYVILLE    PTSUNNY   75  52  44 SW15G23   30.12S
HUTCHINSON     LGT RAIN  64  56  75 S13       30.06S
NEWTON         CLOUDY    68  52  56 S16       30.11S
PARSONS        MOSUNNY   75  52  44 S13G22    30.12F
WICHITA INTL   CLOUDY    68  54  60 S14       30.08S
WICHITA JABRA  CLOUDY    70  55  59 S17       30.08S
WINFIELD       CLOUDY    69  55  60 S13       30.11S
$$

KSZ007>012-019>026-033>040-048>060-102>105-201800-
NORTHEAST KANSAS

CITY           SKY/WX    TMP DP  RH WIND       PRES   REMARKS
CONCORDIA      PTSUNNY   75  52  44 S21       30.00F
EMPORIA        PTSUNNY   73  53  49 S14G24    30.07S
LAWRENCE       MOSUNNY   75  54  47 S15       30.07F
MANHATTAN      PTSUNNY   80  54  40 SW18G26   30.02F
OLATHE IND     MOSUNNY   74  53  48 S16G25    30.09F
OLATHE EXE     MOSUNNY   72  52  49 SW16G24   30.09F
SALINA         PTSUNNY   71  53  52 S15       30.04S
TOPEKA BILLARD MOSUNNY   77  53  43 S16G24    30.06F
TOPEKA FORBES  MOSUNNY   76  52  43 SW17      30.06F
$$



USA.gov is the U.S. government's official web portal to all federal, state and local government web resources and services.